Weather History for KMPO - May, 2014

Change the Weather History Date:

Monday, May 26, 2014

  Actual Average Record
Temperature  
Mean Temperature 64 °F 58 °F  
Max Temperature 79 °F 68 °F 87 °F (2010)
Min Temperature 49 °F 48 °F 30 °F (1925)
Degree Days  
Heating Degree Days 1 8  
Month to date heating degree days 224 285  
Since 1 July heating degree days 7425 6979  
Cooling Degree Days 0 1  
Month to date cooling degree days 3 8  
Year to date cooling degree days 3 12  
Growing Degree Days 14 (Base 50)    
Moisture  
Dew Point 47 °F    
Average Humidity 59    
Maximum Humidity 86    
Minimum Humidity 32    
Precipitation  
Precipitation 0.00 in 0.18 in 0.53 in (2012)
Month to date precipitation 4.29 3.56  
Year to date precipitation 18.74 16.67  
Sea Level Pressure  
Sea Level Pressure 30.03 in    
Wind  
Wind Speed 10 mph (West)    
Max Wind Speed 20 mph    
Max Gust Speed 26 mph    
Visibility 10 miles    
Events      
T = Trace of Precipitation, MM = Missing Value Source: NWS Daily Summary

Daily Weather History Graph

Daily Weather History Graph

Search for Another Location

Airport or City:

Trip Planner

Search our weather history database for the weather conditions in past years. The results will help you decide how hot, cold, wet, or windy it might be!

Date:

Astronomy

May. 26, 2014 Rise Set
Actual Time 5:34 AM EDT 8:23 PM EDT
Civil Twilight 5:02 AM EDT 8:55 PM EDT
Nautical Twilight 4:21 AM EDT 9:36 PM EDT
Astronomical Twilight 3:34 AM EDT 10:23 PM EDT
Moon 4:16 AM EDT (5/26) 6:22 PM EDT (5/26)
Length of Visible Light 15h 53m
Length of Day
14h 48m
Waning Crescent, 5% of the Moon is Illuminated
May 26
Waning Crescent
May 28
New
Jun 5
First Quarter
Jun 13
Full
Jun 19
Last Quarter

Hourly Weather History & Observations

Time (EDT) Temp. Dew Point Humidity Pressure Visibility Wind Dir Wind Speed Gust Speed Precip Events Conditions
12:53 AM 48.9 °F 45.0 °F 86% 30.10 in 10.0 mi WNW 4.6 mph - N/A   Clear
1:53 AM 54.0 °F 46.0 °F 75% 30.09 in 10.0 mi West 5.8 mph - N/A   Clear
2:53 AM 57.0 °F 45.0 °F 64% 30.08 in 10.0 mi West 4.6 mph - N/A   Partly Cloudy
3:53 AM 54.0 °F 46.0 °F 75% 30.07 in 10.0 mi West 6.9 mph - N/A   Clear
5:53 AM 55.9 °F 44.1 °F 64% 30.08 in 10.0 mi West 5.8 mph - N/A   Overcast
6:53 AM 55.9 °F 45.0 °F 67% 30.10 in 10.0 mi WNW 6.9 mph - N/A   Overcast
7:53 AM 60.1 °F 46.0 °F 60% 30.09 in 10.0 mi West 10.4 mph - N/A   Clear
8:53 AM 66.9 °F 46.0 °F 47% 30.09 in 10.0 mi West 12.7 mph - N/A   Clear
9:53 AM 71.1 °F 42.1 °F 35% 30.09 in 10.0 mi WNW 12.7 mph 19.6 mph N/A   Clear
10:53 AM 73.0 °F 42.1 °F 33% 30.09 in 10.0 mi West 10.4 mph 18.4 mph N/A   Clear
11:53 AM 75.0 °F 44.1 °F 33% 30.08 in 10.0 mi NNW 10.4 mph - N/A   Clear
12:53 PM 75.9 °F 45.0 °F 33% 30.05 in 10.0 mi NW 11.5 mph - N/A   Clear
1:53 PM 79.0 °F 46.0 °F 31% 30.02 in 10.0 mi West 13.8 mph 18.4 mph N/A   Clear
2:53 PM 78.1 °F 48.0 °F 35% 30.00 in 10.0 mi West 15.0 mph 19.6 mph N/A   Partly Cloudy
3:53 PM 78.1 °F 48.0 °F 35% 29.99 in 10.0 mi West 12.7 mph - N/A   Clear
4:53 PM 78.1 °F 48.9 °F 36% 29.97 in 10.0 mi West 12.7 mph 18.4 mph N/A   Clear
5:53 PM 77.0 °F 48.9 °F 37% 29.96 in 10.0 mi West 15.0 mph - N/A   Clear
7:53 PM 73.0 °F 50.0 °F 44% 29.95 in 10.0 mi West 6.9 mph - N/A   Clear
8:53 PM 70.0 °F 51.1 °F 51% 29.94 in 10.0 mi West 8.1 mph - N/A   Clear
9:53 PM 69.1 °F 51.1 °F 53% 29.96 in 10.0 mi West 9.2 mph - N/A   Clear
10:53 PM 68.0 °F 51.1 °F 55% 29.95 in 10.0 mi West 8.1 mph - N/A   Clear
11:53 PM 64.9 °F 51.1 °F 61% 29.96 in 10.0 mi WNW 5.8 mph - N/A   Clear